Temp
10 10 11 11 11 11 11 11 10 10 10 10 10 10 10 10 10 10 10 10 9 9 9 9 9 9 9 9 9 8 8 8 8 8 8 8 8 8 8 8 7 7 7 7 7 7 7 7 6 6 6 6 5 5 5 5 4 4 4 4 3 3 3 3 2 2 2 2 1
10 10 11 11 11 11 11 10 10 10 10 10 10 10 10 10 10 10 10 9 9 9 9 9 9 9 9 9 9 8 8 8 8 8 8 8 8 8 8 7 7 7 7 7 7 7 6 6 6 6 5 5 5 5 4 4 4 4 4 3 3 3 3 2 2 2 2 1 1
10 10 10 11 11 11 10 10 10 10 10 10 10 10 10 10 10 10 9 9 9 9 9 9 9 9 9 9 8 8 8 8 8 8 8 8 8 7 7 7 7 7 7 7 7 6 6 6 6 5 5 5 5 4 4 4 4 4 3 3 3 2 2 2 2 2 1 1 1
10 10 10 10 10 10 10 10 10 10 10 10 10 10 10 10 10 9 9 9 9 9 9 9 9 9 9 9 8 8 8 8 8 8 8 7 7 7 7 7 7 7 7 7 6 6 6 6 5 5 5 5 4 4 4 4 4 3 3 3 2 2 2 2 1 1 1 1 1
10 10 10 10 10 10 10 10 10 10 10 10 10 10 10 10 10 9 9 9 9 9 9 9 9 9 9 8 8 8 8 8 8 8 7 7 7 7 7 7 7 7 7 6 6 6 6 5 5 5 5 4 4 4 4 3 3 3 3 2 2 2 2 1 1 1 1 1 1
10 10 10 10 10 10 10 10 10 10 10 10 10 10 10 10 9 9 9 9 9 9 9 9 9 9 9 8 8 8 8 8 8 7 7 7 7 7 7 7 7 7 6 6 6 6 6 5 5 5 4 4 4 4 3 3 3 3 3 2 2 2 1 1 1 1 1 1 1
10 10 10 10 10 10 10 10 10 10 10 10 10 10 10 9 9 9 9 9 9 9 9 9 9 9 8 8 8 8 8 8 7 7 7 7 7 7 7 7 7 6 6 6 6 6 5 5 5 4 4 4 4 3 3 3 3 3 2 2 2 1 1 1 1 1 1 1 1
10 10 10 10 10 10 10 10 10 10 10 10 10 9 9 9 9 9 9 9 9 9 9 9 9 8 8 8 8 8 8 7 7 7 7 7 7 7 7 7 6 6 6 6 6 5 5 5 5 4 4 4 3 3 3 3 3 2 2 2 2 1 1 1 1 1 1 1 1
10 10 10 10 10 10 10 10 10 10 10 10 9 9 9 9 9 9 9 9 9 9 9 9 8 8 8 8 8 7 7 7 7 7 7 7 7 7 7 7 6 6 6 6 5 5 5 5 4 4 4 3 3 3 3 3 2 2 2 2 2 1 1 1 1 1 1 1 1
10 10 10 10 10 10 10 10 10 10 9 9 9 9 9 9 9 9 9 9 9 9 9 8 8 8 8 8 7 7 7 7 7 7 7 7 7 7 7 6 6 6 6 5 5 5 5 4 4 4 3 3 3 3 2 2 2 2 2 2 2 1 1 1 1 1 1 1 1
10 10 10 10 10 10 10 9 9 9 9 9 9 9 9 9 9 9 9 9 9 9 8 8 8 8 8 7 7 7 7 7 7 7 7 7 7 7 6 6 6 6 5 5 5 5 4 4 4 3 3 3 3 2 2 2 2 2 2 2 1 1 1 1 1 1 1 1 1
10 10 10 10 10 9 9 9 9 9 9 9 9 9 9 9 9 9 9 9 9 8 8 8 8 8 7 7 7 7 7 7 7 7 7 7 7 6 6 6 6 5 5 5 5 4 4 4 3 3 3 3 2 2 2 2 2 2 2 1 1 1 1 1 1 1 1 1 1
10 10 9 9 9 9 9 9 9 9 9 9 9 9 9 9 9 9 9 8 8 8 8 8 8 7 7 7 7 7 7 7 7 7 7 7 6 6 6 6 5 5 5 5 4 4 4 3 3 3 3 3 2 2 2 2 2 2 1 1 1 1 1 1 1 1 1 1 1
9 9 9 9 9 9 9 9 9 9 9 9 9 8 8 9 9 8 8 8 8 8 8 8 7 7 7 7 7 7 7 7 7 7 7 6 6 6 6 5 5 5 5 4 4 4 3 3 3 3 3 2 2 2 2 2 1 1 1 1 1 1 1 1 1 1 1 1 1
9 9 9 9 9 9 9 9 9 9 9 8 8 8 8 8 8 8 8 8 8 8 7 7 7 7 7 7 7 7 7 7 7 7 6 6 6 6 5 5 5 5 4 4 4 3 3 3 3 2 2 2 2 2 2 1 1 1 1 1 1 1 1 1 1 1 1 1 1
9 9 9 9 9 9 9 9 9 8 8 8 8 8 8 8 8 8 8 8 8 7 7 7 7 7 7 7 7 7 7 7 7 6 6 6 6 5 5 5 5 4 4 4 3 3 3 3 2 2 2 2 2 2 1 1 1 1 1 1 1 1 1 1 1 1 1 1 1
9 9 9 9 9 9 9 8 8 8 8 8 8 8 8 8 8 8 8 7 7 7 7 7 7 7 7 7 7 7 7 6 6 6 6 5 5 5 5 4 4 4 4 3 3 3 2 2 2 2 2 2 2 1 1 1 1 1 1 1 1 1 1 1 1 1 1 1 1
9 9 9 9 9 9 8 8 8 8 8 8 8 8 8 8 8 7 7 7 7 7 7 7 6 7 7 7 7 6 6 6 6 6 5 5 5 5 4 4 4 4 3 3 3 3 2 2 2 2 1 1 1 1 1 1 1 1 1 1 1 1 1 1 1 1 1 1 1
9 9 9 9 9 8 8 8 8 8 8 8 8 8 8 7 7 7 7 7 7 7 6 6 6 6 6 6 6 6 6 6 6 5 5 5 5 4 4 4 4 3 3 3 2 2 2 2 2 1 1 1 1 1 1 1 1 1 1 1 1 1 1 1 1 1 1 1 0
9 9 9 9 8 8 8 8 8 8 8 8 7 7 7 7 7 7 7 7 6 6 6 6 6 6 6 6 6 6 6 6 5 5 5 5 4 4 4 3 3 3 3 2 2 2 2 2 1 1 1 1 1 1 1 1 1 1 1 1 1 1 1 1 1 1 1 1 0
9 9 9 8 8 8 8 7 7 7 7 7 7 7 7 7 7 7 7 6 6 6 6 6 6 6 6 6 6 6 6 5 5 5 5 4 4 4 3 3 3 3 2 2 2 2 2 1 1 1 1 1 1 1 1 1 1 1 1 1 1 1 1 1 1 1 1 0 0
9 8 8 8 8 7 7 7 7 7 7 7 7 7 7 7 7 6 6 6 6 6 6 6 6 6 6 6 6 6 5 5 5 5 4 4 4 3 3 3 3 2 2 2 2 2 1 1 1 1 1 1 1 1 1 1 1 1 1 1 1 1 1 1 1 1 0 0 0
8 8 8 8 7 7 7 7 7 7 7 7 7 7 7 6 6 6 6 6 6 6 6 6 6 6 6 6 6 5 5 5 5 4 4 4 3 3 3 3 2 2 2 2 2 1 1 1 1 1 1 1 1 1 1 1 1 1 1 1 1 1 1 1 0 0 0 0 0
8 8 7 7 7 7 7 7 7 7 7 7 7 6 6 6 6 6 6 6 6 6 6 6 6 6 6 6 5 5 5 5 4 4 4 3 3 3 3 2 2 2 2 1 1 1 1 1 1 1 1 1 1 1 1 1 1 1 1 1 1 0 0 0 0 0 0 0 0
8 7 7 7 7 7 7 7 7 7 7 6 6 6 6 6 6 6 6 6 6 6 6 6 6 6 5 5 5 5 5 4 4 4 3 3 3 3 2 2 2 2 1 1 1 1 1 1 1 1 1 1 1 1 1 0 0 0 0 0 0 0 0 0 0 0 0 -0 -0
7 7 7 7 7 7 7 7 7 6 6 6 6 6 6 6 6 6 6 6 6 6 6 6 5 5 5 5 5 5 4 4 4 4 3 3 3 2 2 2 2 2 1 1 1 1 1 1 1 1 1 0 0 0 0 0 0 0 0 -0 -0 -0 -0 0 0 -0 -0 -0 -0
7 7 7 7 7 7 6 6 6 6 6 6 6 6 6 6 6 6 6 6 5 5 5 5 5 5 5 5 5 4 4 4 4 3 3 3 3 2 2 2 2 1 1 1 1 1 1 1 1 0 0 0 0 0 -0 -0 -0 -0 -0 -0 -0 -0 -0 -0 -0 -0 -0 -0 -0
7 7 7 7 6 6 6 6 6 6 6 6 6 6 6 6 6 6 5 5 5 5 5 5 5 5 5 5 4 4 4 4 3 3 3 3 2 2 2 2 2 1 1 1 1 1 1 1 1 0 0 0 -0 -0 -0 -0 -0 -0 -0 -0 -0 -1 -1 -1 -1 -1 -1 -1 -1
7 7 7 6 6 6 6 6 6 6 6 6 6 6 6 6 5 5 5 5 5 5 5 5 5 5 5 4 4 4 4 3 3 3 3 2 2 2 2 2 2 1 1 1 1 1 1 1 1 0 0 -0 -0 -0 -0 -0 -0 -0 -1 -1 -1 -1 -1 -1 -1 -1 -1 -1 -1
7 7 6 6 6 6 6 6 6 6 6 6 6 6 6 5 5 5 5 5 5 5 5 5 5 5 4 4 4 4 3 3 3 3 2 2 2 2 2 2 1 1 1 1 1 1 1 1 0 0 0 -0 -0 -0 -1 -1 -1 -1 -1 -1 -1 -1 -1 -1 -1 -1 -1 -2 -2
6 6 6 6 6 6 6 6 6 6 6 6 6 6 5 5 5 5 5 5 5 5 5 5 5 4 4 4 4 4 3 3 3 3 2 2 2 2 2 2 1 1 1 1 1 1 1 0 0 0 -0 -0 -0 -1 -1 -1 -1 -1 -1 -1 -1 -1 -1 -1 -1 -1 -2 -2 -2
6 6 6 6 6 6 6 6 6 6 6 6 6 5 5 5 5 5 5 5 5 5 5 4 4 4 4 4 4 3 3 3 3 2 2 2 2 2 2 1 1 1 1 1 1 0 0 0 0 -0 -0 -0 -1 -1 -1 -1 -1 -1 -1 -1 -1 -1 -1 -1 -2 -2 -2 -2 -2
6 6 6 6 6 6 6 6 6 6 6 6 5 5 5 5 5 5 5 5 4 4 4 4 4 4 4 4 3 3 3 3 3 2 2 2 2 2 1 1 1 1 1 1 0 0 0 0 -0 -0 -0 -1 -1 -1 -1 -1 -1 -1 -1 -1 -1 -1 -1 -1 -2 -2 -2 -2 -2
6 6 6 6 6 6 6 6 6 6 6 5 5 5 5 5 5 5 4 4 4 4 4 4 4 4 4 4 3 3 3 3 3 2 2 2 2 1 1 1 1 1 1 0 0 0 0 -0 -0 -0 -1 -1 -1 -1 -1 -1 -1 -1 -1 -1 -1 -1 -1 -1 -2 -2 -2 -2 -2
6 6 6 6 6 6 6 6 6 6 5 5 5 5 5 5 5 4 4 4 4 4 4 4 4 4 4 3 3 3 3 3 3 2 2 2 2 1 1 1 1 1 0 0 0 -0 -0 -0 -0 -1 -1 -1 -1 -1 -1 -1 -1 -1 -1 -1 -1 -1 -1 -1 -1 -1 -1 -2 -2
6 6 6 6 6 6 6 6 6 5 5 5 5 5 5 5 4 4 4 4 4 4 4 4 4 4 3 3 3 3 3 3 2 2 2 2 1 1 1 1 1 1 0 0 -0 -0 -0 -0 -1 -1 -1 -1 -1 -1 -1 -1 -1 -1 -1 -1 -1 -1 -1 -1 -1 -1 -1 -2 -2
6 6 6 6 6 6 6 6 6 5 5 5 5 5 5 4 4 4 4 4 4 4 4 4 4 3 3 3 3 3 3 3 2 2 2 1 1 1 1 1 1 0 0 -0 -0 -0 -1 -1 -1 -1 -1 -1 -1 -1 -1 -1 -2 -2 -1 -1 -1 -1 -1 -1 -1 -1 -1 -2 -2
6 6 6 6 6 6 6 6 5 5 5 5 5 5 4 4 4 4 4 4 4 4 4 4 3 3 3 3 3 3 3 2 2 2 1 1 1 1 1 1 0 0 0 -0 -0 -1 -1 -1 -1 -1 -1 -1 -1 -1 -2 -2 -2 -2 -2 -2 -1 -1 -2 -2 -2 -2 -2 -2 -2
6 6 6 6 6 6 5 5 5 5 5 5 5 4 4 4 4 4 4 4 4 3 3 3 3 3 3 3 3 3 2 2 2 2 1 1 1 1 0 0 0 0 -0 -0 -1 -1 -1 -1 -1 -1 -1 -1 -2 -2 -2 -2 -2 -2 -2 -2 -2 -2 -2 -2 -2 -2 -2 -2 -3
6 6 6 6 6 5 5 5 5 5 5 5 4 4 4 4 4 4 4 3 3 3 3 3 3 3 3 3 3 3 2 2 2 1 1 1 1 0 0 0 0 -0 -0 -1 -1 -1 -1 -1 -1 -1 -1 -1 -2 -2 -2 -2 -2 -2 -2 -2 -2 -2 -2 -3 -3 -3 -3 -3 -3
6 6 6 6 5 5 5 5 5 5 5 4 4 4 4 4 4 4 3 3 3 3 3 3 3 3 3 3 3 2 2 2 2 1 1 1 0 0 0 -0 -0 -0 -0 -1 -1 -1 -1 -1 -1 -1 -1 -2 -2 -2 -2 -2 -2 -2 -2 -2 -3 -3 -3 -3 -3 -3 -3 -3 -3
Height
1528 1530 1531 1532 1533 1534 1535 1537 1538 1539 1540 1542 1543 1544 1545 1545 1546 1547 1548 1548 1548 1549 1549 1549 1549 1549 1549 1549 1549 1548 1548 1548 1548 1547 1547 1546 1545 1545 1544 1543 1542 1541 1540 1539 1538 1538 1537 1536 1536 1535 1534 1533 1532 1531 1530 1529 1528 1527 1526 1525 1524 1523 1523 1522 1521 1520 1519 1518 1518
1528 1528 1530 1531 1532 1533 1534 1536 1537 1538 1539 1541 1542 1543 1544 1545 1545 1546 1546 1547 1547 1548 1548 1548 1548 1548 1548 1548 1548 1547 1547 1547 1546 1546 1545 1544 1544 1543 1542 1541 1540 1539 1538 1538 1537 1536 1535 1535 1534 1533 1532 1531 1530 1529 1528 1527 1527 1526 1525 1524 1523 1522 1521 1520 1519 1519 1518 1517 1517
1526 1528 1528 1529 1531 1532 1533 1534 1535 1537 1538 1539 1541 1542 1543 1543 1544 1545 1545 1546 1546 1547 1547 1547 1547 1547 1547 1546 1546 1546 1545 1545 1545 1544 1543 1543 1542 1541 1540 1539 1538 1538 1537 1536 1535 1534 1534 1533 1532 1531 1530 1530 1529 1528 1527 1526 1525 1524 1523 1522 1521 1520 1520 1519 1518 1517 1517 1516 1515
1525 1526 1527 1528 1529 1530 1532 1533 1534 1536 1537 1538 1539 1540 1541 1542 1543 1543 1544 1544 1545 1545 1545 1546 1546 1545 1545 1545 1545 1544 1544 1543 1543 1543 1542 1541 1540 1539 1538 1538 1537 1536 1535 1534 1533 1533 1532 1531 1530 1530 1529 1528 1527 1526 1525 1524 1523 1523 1522 1521 1520 1519 1518 1518 1517 1516 1515 1514 1514
1524 1525 1526 1527 1528 1529 1531 1532 1533 1535 1536 1537 1538 1539 1540 1541 1542 1542 1543 1543 1543 1544 1544 1544 1544 1544 1544 1543 1543 1543 1543 1542 1541 1541 1540 1539 1539 1538 1537 1536 1535 1534 1533 1533 1532 1531 1530 1530 1529 1528 1527 1526 1525 1524 1523 1523 1522 1521 1520 1519 1518 1518 1517 1516 1515 1515 1514 1513 1513
1523 1524 1525 1526 1528 1528 1530 1531 1533 1534 1535 1536 1537 1538 1539 1539 1540 1541 1541 1542 1542 1543 1543 1543 1543 1543 1542 1542 1542 1541 1541 1540 1540 1539 1539 1538 1537 1536 1535 1534 1533 1533 1532 1531 1530 1529 1529 1528 1527 1526 1525 1524 1523 1523 1522 1521 1520 1520 1519 1518 1517 1517 1516 1515 1514 1513 1513 1512 1511
1522 1523 1524 1525 1526 1528 1529 1530 1532 1533 1534 1535 1536 1537 1537 1538 1539 1539 1540 1540 1541 1541 1541 1541 1541 1541 1541 1540 1540 1540 1539 1539 1538 1538 1537 1536 1536 1535 1534 1533 1532 1531 1530 1530 1529 1528 1527 1526 1526 1525 1524 1523 1522 1521 1520 1519 1519 1518 1518 1517 1516 1515 1514 1513 1513 1512 1511 1510 1510
1521 1522 1523 1524 1525 1526 1528 1529 1530 1532 1533 1533 1534 1535 1536 1537 1537 1538 1538 1539 1539 1539 1539 1539 1539 1539 1539 1539 1538 1538 1538 1537 1537 1536 1536 1535 1534 1533 1533 1532 1531 1530 1529 1528 1527 1527 1526 1525 1524 1523 1522 1521 1520 1520 1519 1518 1517 1517 1516 1515 1515 1514 1513 1512 1511 1511 1510 1509 1508
1519 1520 1521 1523 1524 1525 1527 1528 1529 1530 1531 1532 1533 1534 1534 1535 1536 1537 1537 1538 1538 1538 1538 1538 1538 1538 1538 1537 1537 1537 1536 1536 1535 1535 1534 1533 1533 1532 1531 1530 1529 1528 1527 1527 1526 1525 1524 1523 1522 1522 1521 1520 1519 1518 1518 1517 1516 1515 1515 1514 1513 1513 1512 1511 1510 1509 1508 1508 1507
1518 1519 1520 1521 1523 1524 1525 1527 1528 1529 1530 1531 1532 1532 1533 1534 1534 1535 1536 1536 1536 1536 1536 1536 1536 1536 1536 1536 1536 1535 1535 1534 1534 1533 1533 1532 1531 1530 1529 1529 1528 1527 1526 1525 1524 1523 1523 1522 1521 1520 1519 1518 1518 1517 1516 1515 1515 1514 1513 1513 1512 1511 1511 1510 1509 1508 1507 1506 1505
1516 1517 1518 1520 1521 1523 1524 1525 1527 1528 1528 1529 1530 1531 1532 1532 1533 1533 1534 1534 1535 1535 1535 1535 1535 1535 1534 1534 1534 1534 1533 1533 1533 1532 1531 1530 1530 1529 1528 1527 1526 1525 1524 1523 1523 1522 1521 1520 1519 1519 1518 1517 1516 1516 1515 1514 1513 1513 1512 1511 1511 1510 1509 1508 1508 1507 1505 1505 1504
1515 1516 1517 1518 1520 1521 1523 1524 1525 1526 1527 1528 1528 1529 1530 1531 1532 1532 1533 1533 1533 1533 1533 1533 1533 1533 1533 1533 1533 1532 1532 1531 1531 1530 1529 1529 1528 1527 1526 1526 1525 1524 1523 1522 1521 1520 1519 1519 1518 1517 1517 1516 1515 1514 1513 1513 1512 1511 1510 1510 1509 1508 1508 1507 1506 1505 1504 1503 1502
1514 1515 1516 1517 1518 1520 1521 1523 1523 1524 1525 1526 1527 1528 1529 1529 1530 1531 1531 1531 1532 1532 1532 1532 1532 1532 1532 1531 1531 1531 1530 1530 1529 1528 1528 1527 1526 1526 1525 1524 1523 1522 1521 1521 1520 1519 1518 1517 1516 1516 1515 1514 1514 1513 1512 1511 1510 1510 1509 1508 1508 1507 1506 1505 1504 1503 1503 1502 1501
1513 1513 1514 1516 1517 1518 1520 1521 1522 1523 1524 1525 1526 1527 1527 1528 1528 1529 1529 1530 1530 1530 1530 1530 1530 1530 1530 1530 1529 1529 1529 1528 1528 1527 1526 1525 1525 1524 1523 1522 1522 1521 1520 1519 1518 1517 1516 1516 1515 1514 1513 1513 1512 1512 1511 1510 1509 1508 1508 1507 1506 1505 1504 1504 1503 1502 1501 1500 1499
1511 1512 1513 1514 1516 1517 1518 1519 1521 1522 1523 1523 1524 1525 1526 1527 1527 1528 1528 1528 1528 1528 1529 1529 1528 1528 1528 1528 1528 1528 1527 1527 1526 1525 1524 1524 1523 1522 1522 1521 1520 1519 1518 1518 1517 1516 1515 1514 1513 1513 1512 1512 1511 1510 1509 1508 1508 1507 1506 1505 1504 1504 1503 1502 1501 1500 1499 1498 1498
1509 1510 1512 1513 1514 1516 1517 1518 1519 1520 1521 1522 1523 1523 1524 1525 1525 1526 1526 1527 1527 1527 1527 1527 1527 1527 1527 1526 1526 1526 1525 1525 1524 1524 1523 1522 1521 1521 1520 1519 1518 1518 1517 1516 1515 1514 1513 1513 1512 1511 1511 1510 1509 1509 1508 1507 1506 1506 1505 1504 1503 1502 1502 1501 1500 1499 1498 1497 1496
1508 1509 1510 1511 1513 1514 1515 1516 1518 1518 1519 1520 1521 1522 1523 1523 1524 1524 1525 1525 1525 1525 1526 1526 1526 1525 1525 1525 1524 1524 1524 1523 1523 1522 1521 1520 1520 1519 1518 1518 1517 1516 1515 1514 1513 1513 1512 1511 1510 1510 1509 1508 1508 1507 1507 1506 1505 1504 1503 1503 1502 1501 1500 1499 1498 1497 1496 1495 1494
1506 1507 1508 1510 1511 1513 1514 1515 1516 1517 1518 1519 1520 1521 1521 1522 1523 1523 1523 1523 1524 1524 1524 1524 1524 1524 1523 1523 1523 1523 1522 1522 1521 1520 1519 1519 1518 1517 1517 1516 1515 1514 1513 1513 1512 1511 1511 1510 1509 1508 1508 1507 1506 1506 1505 1504 1503 1503 1502 1501 1500 1500 1499 1498 1497 1496 1495 1494 1493
1504 1505 1507 1508 1509 1511 1512 1513 1514 1515 1517 1518 1518 1519 1520 1520 1521 1521 1522 1522 1523 1523 1523 1523 1522 1522 1522 1522 1521 1521 1520 1520 1519 1518 1518 1517 1516 1516 1515 1514 1513 1513 1512 1511 1510 1510 1509 1508 1508 1507 1506 1505 1505 1504 1503 1503 1502 1501 1501 1500 1499 1498 1497 1496 1495 1494 1493 1492 1491
1502 1503 1505 1507 1508 1509 1511 1512 1513 1514 1515 1516 1517 1518 1518 1519 1519 1520 1520 1521 1521 1521 1521 1521 1521 1521 1520 1520 1520 1519 1518 1518 1517 1517 1516 1515 1515 1514 1513 1512 1512 1511 1510 1509 1509 1508 1508 1507 1506 1506 1505 1504 1503 1503 1502 1501 1500 1500 1499 1498 1497 1497 1496 1495 1494 1493 1492 1490 1489
1501 1502 1503 1505 1507 1508 1509 1510 1512 1513 1514 1515 1515 1516 1517 1518 1518 1519 1519 1519 1520 1520 1520 1520 1519 1519 1519 1518 1518 1517 1517 1516 1515 1515 1514 1513 1513 1512 1511 1511 1510 1509 1508 1508 1507 1507 1506 1505 1505 1504 1503 1503 1502 1501 1500 1499 1499 1498 1497 1496 1495 1495 1494 1493 1492 1491 1490 1488 1487
1499 1501 1503 1504 1505 1507 1508 1509 1510 1512 1513 1513 1514 1515 1516 1516 1517 1517 1518 1518 1518 1518 1518 1518 1518 1518 1517 1517 1516 1516 1515 1514 1514 1513 1513 1512 1511 1510 1510 1509 1508 1508 1507 1506 1506 1505 1504 1504 1503 1503 1502 1501 1500 1499 1498 1498 1497 1496 1495 1494 1493 1493 1492 1491 1490 1489 1488 1487 1485
1498 1500 1502 1503 1504 1506 1507 1508 1509 1510 1511 1512 1513 1513 1514 1515 1515 1516 1516 1517 1517 1517 1517 1517 1516 1516 1516 1515 1514 1514 1513 1513 1512 1511 1511 1510 1509 1509 1508 1507 1507 1506 1505 1505 1504 1503 1503 1502 1502 1501 1500 1499 1498 1498 1497 1496 1495 1494 1493 1492 1491 1490 1490 1489 1488 1487 1486 1484 1483
1498 1499 1500 1502 1503 1504 1505 1507 1508 1509 1510 1511 1511 1512 1513 1513 1514 1514 1515 1515 1515 1515 1515 1515 1515 1514 1514 1513 1513 1512 1512 1511 1510 1510 1509 1508 1508 1507 1506 1506 1505 1504 1504 1503 1503 1502 1501 1501 1500 1499 1498 1497 1496 1495 1494 1493 1493 1492 1491 1490 1489 1488 1487 1487 1486 1485 1484 1483 1481
1496 1498 1499 1500 1502 1503 1504 1505 1506 1507 1508 1509 1510 1511 1512 1512 1513 1513 1513 1513 1513 1513 1513 1513 1513 1512 1512 1511 1511 1510 1510 1509 1509 1508 1508 1507 1506 1506 1505 1504 1504 1503 1502 1502 1501 1500 1500 1499 1498 1497 1496 1495 1494 1493 1492 1491 1490 1490 1488 1488 1487 1486 1485 1484 1483 1483 1482 1480 1479
1495 1496 1498 1499 1500 1502 1503 1504 1505 1506 1507 1508 1509 1509 1510 1511 1511 1511 1512 1512 1512 1512 1512 1511 1511 1510 1510 1510 1509 1509 1508 1508 1507 1507 1506 1505 1505 1504 1503 1503 1502 1502 1501 1500 1500 1499 1498 1498 1496 1495 1494 1493 1492 1491 1490 1489 1488 1488 1487 1486 1485 1484 1483 1482 1481 1480 1479 1478 1477
1493 1495 1496 1498 1499 1500 1502 1503 1504 1505 1506 1507 1508 1508 1509 1509 1509 1510 1510 1510 1510 1510 1510 1509 1509 1509 1508 1508 1508 1507 1506 1506 1505 1505 1504 1504 1503 1503 1502 1501 1501 1500 1499 1499 1498 1497 1497 1496 1495 1494 1493 1491 1490 1489 1488 1487 1486 1486 1485 1484 1483 1482 1481 1480 1479 1478 1477 1476 1475
1492 1493 1495 1497 1498 1499 1500 1502 1503 1504 1504 1505 1506 1507 1507 1508 1508 1508 1508 1508 1508 1508 1508 1508 1508 1507 1507 1506 1506 1505 1505 1504 1503 1503 1502 1502 1502 1501 1500 1500 1499 1498 1498 1497 1496 1496 1495 1494 1493 1492 1491 1490 1488 1487 1486 1485 1484 1484 1483 1482 1481 1480 1479 1478 1477 1475 1474 1473 1472
1491 1492 1494 1495 1497 1498 1499 1500 1501 1503 1503 1504 1505 1505 1506 1506 1507 1507 1507 1507 1507 1506 1506 1506 1506 1506 1505 1505 1504 1504 1503 1503 1502 1501 1501 1500 1500 1499 1499 1498 1498 1497 1496 1495 1494 1494 1493 1492 1491 1490 1489 1488 1487 1485 1484 1483 1483 1482 1481 1480 1479 1478 1477 1475 1474 1473 1472 1471 1469
1490 1491 1493 1494 1496 1497 1498 1499 1500 1501 1502 1503 1503 1504 1504 1505 1505 1505 1505 1505 1505 1505 1505 1504 1504 1504 1503 1503 1503 1502 1501 1501 1500 1499 1499 1498 1498 1497 1497 1496 1496 1495 1494 1493 1493 1492 1491 1490 1489 1488 1487 1486 1485 1483 1482 1481 1480 1480 1479 1478 1477 1476 1474 1473 1472 1471 1470 1468 1467
1489 1490 1492 1493 1495 1496 1497 1498 1499 1500 1501 1501 1502 1502 1503 1503 1503 1503 1503 1503 1503 1503 1503 1503 1503 1502 1502 1501 1501 1500 1499 1499 1498 1498 1497 1496 1496 1495 1495 1494 1494 1493 1493 1492 1491 1490 1489 1488 1487 1486 1485 1484 1483 1482 1480 1479 1478 1478 1477 1476 1474 1473 1472 1471 1470 1469 1468 1466 1465
1488 1489 1491 1492 1493 1495 1496 1497 1498 1498 1499 1500 1500 1501 1501 1501 1502 1502 1502 1502 1502 1502 1502 1501 1501 1501 1500 1499 1499 1498 1498 1497 1496 1495 1495 1494 1494 1493 1493 1493 1492 1491 1490 1489 1488 1488 1487 1486 1485 1484 1483 1482 1481 1480 1478 1478 1477 1475 1474 1473 1472 1471 1470 1469 1468 1467 1465 1464 1463
1487 1488 1490 1491 1493 1494 1495 1496 1497 1497 1498 1498 1499 1499 1500 1500 1500 1500 1500 1500 1500 1500 1500 1500 1499 1499 1498 1498 1497 1496 1496 1495 1494 1494 1493 1493 1492 1491 1491 1491 1490 1489 1488 1488 1487 1486 1485 1484 1483 1482 1481 1480 1479 1478 1476 1475 1474 1473 1472 1471 1470 1469 1468 1467 1466 1464 1463 1462 1461
1486 1487 1489 1490 1491 1493 1493 1494 1495 1496 1497 1497 1498 1498 1498 1498 1498 1498 1498 1498 1498 1498 1498 1498 1497 1497 1496 1495 1495 1494 1494 1493 1493 1492 1491 1491 1490 1489 1489 1488 1488 1487 1486 1485 1484 1483 1483 1482 1481 1480 1479 1478 1477 1475 1474 1473 1472 1471 1470 1469 1468 1467 1466 1465 1464 1463 1461 1460 1458
1485 1486 1488 1489 1490 1491 1492 1493 1494 1494 1495 1496 1496 1496 1496 1497 1497 1497 1497 1497 1497 1496 1496 1496 1495 1494 1494 1493 1493 1492 1492 1491 1491 1490 1489 1489 1488 1487 1487 1486 1486 1485 1484 1483 1482 1481 1480 1480 1479 1478 1477 1475 1474 1473 1472 1471 1470 1469 1468 1467 1466 1465 1464 1463 1461 1460 1459 1458 1456
1484 1485 1487 1488 1489 1490 1491 1492 1493 1493 1494 1494 1494 1495 1495 1495 1495 1495 1495 1495 1495 1494 1494 1493 1493 1492 1492 1491 1491 1490 1490 1489 1489 1488 1488 1487 1486 1485 1485 1484 1484 1483 1483 1481 1480 1479 1478 1478 1477 1475 1474 1473 1472 1471 1470 1468 1467 1466 1465 1464 1463 1462 1461 1460 1459 1458 1457 1455 1454
1483 1485 1486 1487 1488 1489 1490 1490 1491 1492 1492 1493 1493 1493 1493 1493 1493 1493 1493 1493 1493 1492 1492 1491 1491 1490 1490 1489 1489 1488 1488 1487 1487 1486 1485 1485 1484 1483 1482 1482 1481 1481 1480 1479 1478 1477 1476 1475 1474 1473 1472 1471 1469 1468 1467 1466 1465 1464 1463 1462 1461 1460 1459 1458 1457 1455 1454 1453 1452
1483 1484 1485 1486 1487 1488 1488 1489 1490 1490 1491 1491 1491 1492 1492 1492 1492 1491 1491 1491 1490 1490 1489 1489 1489 1488 1488 1488 1487 1487 1486 1485 1485 1484 1483 1483 1482 1481 1480 1479 1479 1479 1478 1477 1476 1475 1474 1473 1472 1471 1470 1468 1467 1466 1465 1464 1463 1462 1460 1459 1458 1457 1456 1455 1454 1453 1451 1450 1449
1482 1483 1484 1485 1486 1487 1487 1488 1488 1489 1489 1490 1490 1490 1490 1490 1490 1489 1489 1488 1488 1488 1488 1487 1487 1486 1486 1486 1485 1484 1484 1483 1483 1482 1481 1480 1480 1479 1478 1477 1477 1476 1476 1475 1474 1473 1472 1471 1470 1469 1468 1467 1465 1464 1463 1462 1460 1459 1458 1457 1456 1454 1453 1453 1451 1450 1449 1448 1447
1482 1483 1483 1484 1485 1485 1486 1487 1487 1488 1488 1488 1488 1488 1488 1488 1488 1488 1487 1487 1486 1486 1485 1485 1485 1484 1484 1483 1483 1482 1482 1481 1481 1480 1479 1478 1478 1477 1476 1475 1474 1473 1473 1473 1472 1470 1469 1468 1468 1467 1466 1464 1463 1462 1461 1459 1458 1457 1455 1454 1453 1452 1451 1450 1449 1448 1447 1445 1445
1481 1482 1483 1483 1484 1484 1485 1485 1486 1486 1486 1486 1487 1487 1486 1486 1486 1485 1485 1484 1484 1484 1483 1483 1483 1483 1482 1481 1481 1480 1479 1479 1478 1478 1477 1476 1475 1474 1473 1473 1472 1471 1470 1470 1469 1468 1467 1466 1465 1465 1463 1462 1461 1460 1458 1457 1456 1454 1453 1452 1451 1450 1448 1447 1446 1445 1444 1443 1442
Wind_Speed
27 27 27 28 29 29 30 31 31 31 30 30 29 27 26 25 24 22 21 20 19 18 17 17 17 16 16 16 16 16 16 17 17 18 19 19 20 21 22 23 24 24 25 25 26 27 27 27 28 28 28 28 28 29 29 29 28 28 28 28 27 27 26 25 25 24 24 23 23
28 28 28 28 29 30 30 31 30 30 29 28 27 26 25 24 23 22 21 20 19 18 17 17 17 17 16 16 16 16 17 17 18 18 19 20 21 22 23 23 24 25 25 26 26 27 27 27 28 28 28 28 28 28 28 28 28 27 27 26 26 25 25 24 23 23 23 22 22
28 28 29 29 30 31 31 31 31 30 29 27 26 25 24 23 23 22 20 19 18 18 17 17 17 17 17 16 17 17 17 18 18 19 19 20 21 22 23 24 24 25 26 26 27 27 27 28 28 28 28 28 28 28 28 28 27 26 26 25 25 24 23 23 22 22 22 22 22
28 29 30 30 31 31 32 31 31 29 28 27 26 25 24 23 22 21 20 19 18 18 18 18 17 17 17 17 17 17 18 18 19 19 20 21 22 23 23 24 25 25 26 26 27 27 28 28 28 28 28 28 28 27 27 27 26 25 24 24 23 23 22 22 22 21 21 21 21
29 29 30 31 31 31 31 31 30 29 28 27 26 25 24 23 22 21 20 19 19 18 18 18 17 17 17 17 17 17 18 18 19 19 20 21 22 23 24 25 25 26 26 27 27 27 28 28 28 28 28 27 27 27 26 26 25 24 23 23 22 22 21 21 21 21 21 21 22
29 30 30 31 31 31 31 30 29 28 27 26 25 24 23 23 22 21 20 19 19 19 18 18 18 17 17 17 17 18 18 18 19 20 21 22 23 23 24 25 25 26 27 27 27 28 28 28 28 27 27 27 26 26 25 25 24 23 22 22 21 21 21 21 21 21 22 22 22
30 30 31 31 31 31 30 29 28 27 26 25 24 23 23 22 21 21 20 20 19 19 19 18 18 17 17 17 18 18 18 19 19 20 21 22 23 24 24 25 26 26 27 27 27 27 27 27 27 27 27 26 25 25 24 24 23 22 21 21 21 21 21 21 22 22 22 23 23
30 30 31 32 32 31 30 29 28 27 26 25 24 23 23 22 22 21 21 20 20 19 19 18 18 17 17 17 17 18 18 19 20 20 21 22 23 24 25 25 26 26 27 27 27 27 27 27 27 26 26 25 24 24 23 23 22 21 21 21 20 21 21 22 22 23 23 23 24
30 31 31 32 31 31 30 29 28 27 26 25 24 24 23 23 22 22 21 20 20 19 19 18 18 17 17 17 17 18 18 19 20 21 22 22 23 24 25 25 26 26 26 27 27 27 27 26 26 25 25 24 23 23 22 22 22 21 21 21 21 21 21 22 23 23 24 24 24
31 31 32 31 31 30 29 28 27 26 26 25 25 24 24 23 23 22 21 20 20 19 18 18 18 17 17 17 17 18 18 19 20 21 22 23 23 24 25 25 25 26 26 26 26 26 26 25 25 24 24 23 23 22 22 22 21 21 21 21 21 22 22 22 23 24 24 25 25
32 32 32 31 31 30 29 28 27 27 26 25 25 25 24 23 23 22 21 20 20 19 18 18 17 17 17 17 18 18 19 20 20 21 22 23 24 24 24 25 25 25 25 26 26 25 25 25 24 23 23 22 22 22 21 21 21 21 22 22 22 22 23 23 24 24 25 25 26
31 32 32 31 31 30 29 28 27 27 26 26 25 25 24 23 23 22 21 20 19 18 18 18 17 17 17 17 18 18 19 20 21 22 22 23 24 24 24 25 25 25 25 25 25 25 24 24 23 23 22 22 21 21 21 22 22 22 22 23 23 23 24 24 24 25 25 26 26
31 31 31 31 30 29 28 28 27 27 27 26 26 25 24 23 22 21 20 19 18 18 18 17 17 17 17 17 18 19 19 20 21 22 22 23 23 24 24 24 24 24 24 24 24 24 23 23 23 22 22 21 21 21 22 22 22 23 23 23 24 24 24 25 25 25 26 26 27
31 31 30 30 29 29 28 28 27 27 27 26 26 25 24 23 22 21 20 19 18 18 17 17 17 17 17 17 18 19 20 20 21 22 22 23 23 23 23 24 24 24 23 23 23 23 23 22 22 22 21 21 21 21 22 22 23 23 24 24 25 25 25 25 26 26 26 27 27
30 30 29 29 29 28 28 28 28 27 27 26 25 25 23 22 21 20 19 18 18 17 17 17 17 17 17 18 18 19 20 21 21 22 22 23 23 23 23 23 23 23 23 22 22 22 22 22 22 22 22 21 21 22 22 23 23 24 25 25 25 26 26 26 26 26 27 27 27
30 30 29 29 29 28 28 28 28 28 27 26 25 24 23 21 20 19 18 18 17 17 17 17 17 17 17 18 18 19 20 21 21 22 22 22 22 22 22 22 22 22 22 22 21 21 21 21 21 21 22 22 22 22 23 23 24 24 25 25 26 26 26 26 27 27 27 28 28
30 30 29 29 29 29 29 28 28 28 27 26 25 23 22 21 20 19 18 17 17 17 16 16 16 17 17 18 19 19 20 21 21 21 21 21 22 22 22 22 21 21 21 21 21 21 21 21 21 22 22 22 22 23 23 24 24 25 25 25 26 26 26 26 27 27 27 28 28
31 31 30 30 29 29 29 29 29 28 27 25 24 22 21 20 19 18 18 17 17 16 16 16 16 16 17 18 19 19 20 20 21 21 21 21 21 21 21 21 21 21 21 20 20 20 20 21 21 22 22 22 23 23 24 24 25 25 25 25 26 26 26 26 27 27 28 28 28
32 31 31 30 30 30 30 29 29 27 26 24 23 22 21 20 19 18 17 17 16 16 15 15 16 16 17 18 19 19 20 20 20 20 20 20 21 20 20 20 20 20 20 20 20 20 21 21 21 22 22 23 23 24 24 25 25 25 25 26 26 26 26 27 27 27 28 28 29
32 31 31 31 31 31 30 29 28 26 25 23 22 21 20 19 19 18 17 16 15 15 15 15 15 16 17 18 19 19 19 20 20 20 20 20 20 20 20 20 20 20 20 20 20 21 21 21 22 22 23 23 24 24 25 25 25 26 26 26 26 26 27 27 27 28 28 28 29
32 32 31 31 31 31 30 29 27 26 24 23 22 21 20 19 18 17 16 15 15 14 14 15 15 16 17 18 18 19 19 19 19 19 19 20 20 19 20 20 20 20 20 20 20 21 21 22 22 23 23 24 24 25 25 26 26 26 26 27 27 27 27 27 28 28 28 29 29
32 31 31 31 31 30 29 28 26 25 24 22 21 20 20 19 18 16 15 15 14 14 14 15 15 16 17 17 18 18 19 19 19 19 19 19 19 19 19 19 19 20 20 20 21 21 22 22 23 23 24 24 25 25 26 26 27 27 27 27 27 28 28 28 28 28 29 29 30
31 31 32 31 31 30 29 27 26 25 23 22 21 20 19 18 17 16 15 14 14 14 14 15 15 16 17 17 17 18 18 18 19 19 19 19 19 19 19 19 20 20 20 21 21 22 22 23 23 24 24 25 25 26 26 27 27 28 28 28 28 28 28 28 29 29 29 30 30
31 32 32 32 31 30 28 27 26 24 23 22 21 20 19 17 16 15 14 13 13 13 14 15 15 16 16 17 17 18 18 18 18 19 19 19 19 19 19 20 20 20 20 21 22 22 23 23 24 25 25 26 26 27 27 27 28 28 29 29 29 29 29 29 29 29 30 30 30
32 33 33 32 31 30 28 27 25 24 23 22 20 19 18 16 15 14 13 13 13 13 14 14 15 16 16 17 17 18 18 18 18 18 19 19 19 19 19 20 20 20 21 21 22 22 23 24 25 25 26 27 27 28 28 28 28 29 29 29 30 30 30 30 30 30 30 30 30
33 33 33 32 31 29 28 26 25 24 23 21 20 18 17 15 14 13 12 12 13 13 13 14 15 15 16 17 17 18 18 18 19 19 19 19 19 19 19 20 20 21 21 22 22 23 23 24 25 25 26 27 28 28 28 28 29 29 29 29 30 30 30 30 31 30 30 31 31
34 34 33 32 30 29 27 26 25 23 22 21 19 18 16 14 13 12 12 12 12 13 13 14 14 15 16 17 17 18 18 19 19 19 19 19 19 19 20 20 20 21 22 22 23 23 24 24 25 25 26 27 27 28 28 29 29 29 29 29 30 30 30 31 31 31 31 31 31
34 34 33 31 30 28 27 26 24 23 22 20 18 17 15 14 13 12 12 11 12 12 13 14 14 15 16 17 17 18 18 19 19 19 19 20 20 20 20 20 21 21 22 23 23 24 24 24 25 25 26 26 27 28 28 29 29 29 29 30 30 30 30 31 31 31 32 32 32
34 34 33 31 29 28 27 25 24 22 21 19 17 16 14 13 12 12 11 11 11 12 13 13 14 15 16 17 17 18 18 19 19 20 20 20 20 20 20 21 21 22 22 23 24 24 24 25 25 25 26 26 27 28 28 29 29 29 29 30 30 30 31 31 31 32 32 32 32
34 33 32 31 29 28 26 25 23 22 20 19 17 15 14 13 12 11 11 11 11 12 13 14 15 15 16 17 17 18 19 19 20 20 20 21 21 21 21 21 22 22 23 23 24 24 24 25 25 25 26 26 27 28 28 29 29 29 30 30 30 30 31 31 31 31 31 32 32
34 33 31 30 28 27 26 24 23 21 20 18 16 15 14 12 12 11 11 11 11 12 13 14 15 16 16 17 18 18 19 19 20 20 21 21 21 22 22 22 22 23 23 24 24 24 25 25 25 25 26 26 27 27 28 29 29 29 30 30 30 30 31 31 31 31 31 31 31
33 32 31 29 28 26 25 23 22 21 19 18 16 14 13 12 11 11 11 11 12 12 13 14 15 16 17 18 18 19 19 20 20 21 21 22 22 22 22 22 23 23 23 24 24 25 25 25 25 26 26 26 27 28 28 29 29 29 30 30 30 30 30 31 31 31 31 31 31
33 32 30 28 27 26 24 23 22 20 19 17 15 14 12 12 11 11 11 12 12 13 14 15 16 17 17 18 19 19 20 20 21 22 22 23 23 23 23 23 23 23 24 24 25 25 25 26 26 26 26 27 27 28 28 29 29 30 30 30 31 30 30 30 30 30 30 30 31
32 31 29 28 26 25 24 23 21 20 18 16 15 13 12 12 11 11 12 13 13 14 15 16 16 17 18 18 19 20 21 21 22 22 23 23 23 24 24 24 23 24 24 24 25 25 25 26 26 26 27 27 28 28 29 29 30 30 30 31 31 31 31 31 31 30 30 30 30
32 30 29 27 26 25 23 22 21 19 17 15 14 13 12 12 12 12 13 14 14 15 16 17 17 18 19 20 20 21 21 22 23 23 23 24 24 24 24 24 24 24 24 25 25 25 26 26 26 27 27 27 28 28 29 29 30 30 31 31 31 31 31 31 31 31 31 30 30
31 29 28 26 25 24 23 22 20 18 17 15 14 13 13 13 13 14 14 15 16 16 17 18 18 19 20 21 21 22 23 23 24 24 24 24 25 25 25 25 24 24 24 25 25 26 26 26 27 27 27 28 28 29 29 30 30 31 31 32 32 32 32 32 31 31 31 30 29
30 28 27 26 25 24 22 21 19 18 16 15 14 13 13 14 14 15 16 16 17 17 18 19 19 20 21 22 23 23 24 24 24 25 25 25 25 25 25 25 25 25 24 25 25 26 26 27 27 27 28 28 29 29 30 30 31 31 32 32 32 32 32 32 32 31 31 30 29
28 27 26 25 24 23 22 20 18 17 16 15 14 14 15 15 16 16 17 17 18 18 19 20 21 22 22 23 24 24 25 25 25 25 25 25 25 26 26 26 26 25 25 25 25 26 26 27 27 27 28 29 29 30 30 31 31 31 32 32 33 33 33 32 32 32 31 30 29
27 26 25 24 23 22 21 19 18 17 16 15 15 16 16 17 17 18 18 18 19 19 20 21 22 23 24 25 25 26 26 26 26 26 26 26 26 26 26 26 26 26 25 25 26 26 27 27 27 28 28 29 29 30 30 31 31 31 32 32 33 33 33 32 32 31 31 30 29
26 25 24 23 22 21 20 19 18 17 16 16 16 17 17 18 18 19 19 19 20 21 22 23 24 24 25 26 27 27 27 27 26 26 26 26 26 26 27 27 27 26 26 26 26 27 27 28 28 28 29 29 29 30 30 31 31 31 32 32 32 32 33 32 32 31 30 30 29
25 24 24 23 22 21 20 19 18 17 17 17 18 18 18 19 19 19 20 20 21 22 23 24 25 26 27 28 28 28 28 28 27 27 27 27 27 27 27 27 27 27 26 26 26 27 28 28 28 29 29 29 30 30 30 31 31 31 31 31 31 32 32 32 31 31 30 29 28
Wind_Direction
214 214 212 210 209 208 207 208 209 212 214 216 219 221 223 225 227 231 235 239 244 249 254 258 262 266 271 276 280 283 287 290 293 296 300 304 307 310 313 315 316 316 316 316 316 315 315 315 314 314 315 315 315 315 316 316 317 317 318 318 318 318 319 319 319 319 318 318 318
213 212 210 208 207 207 207 208 210 212 214 217 220 222 225 227 230 233 237 241 246 250 254 258 263 268 273 277 281 284 288 291 295 298 303 306 309 312 314 315 316 316 316 316 315 315 314 314 314 314 314 315 315 316 316 316 317 318 318 318 319 319 319 320 320 319 319 319 318
212 211 209 208 207 207 208 209 210 212 214 217 219 222 225 228 231 234 238 242 246 251 255 260 265 270 274 278 282 286 289 293 297 301 305 308 311 313 314 315 316 316 316 316 315 314 314 314 314 314 314 315 315 316 316 317 318 319 319 320 320 320 320 320 320 320 320 320 320
211 210 209 208 208 208 209 210 212 213 215 217 220 222 225 228 231 235 239 242 247 252 257 263 268 272 276 280 284 287 291 295 299 303 307 310 312 314 315 316 316 316 315 315 314 314 314 314 314 314 315 315 316 316 317 317 318 319 320 320 321 321 321 321 321 321 321 321 320
210 210 209 209 208 209 210 212 213 215 217 219 221 224 226 229 232 235 239 243 248 254 260 266 270 274 278 282 285 289 293 297 301 305 308 311 313 314 315 316 316 315 315 314 314 314 313 314 314 314 315 315 316 317 318 318 319 320 321 322 322 322 323 322 322 321 321 321 321
210 210 209 209 209 210 212 213 215 217 219 222 224 226 228 230 233 236 239 244 250 257 263 268 272 276 279 283 287 291 294 298 302 306 309 311 313 314 315 315 315 314 314 313 313 313 313 313 314 314 315 316 317 318 318 319 320 322 322 323 323 323 323 323 322 322 322 321 321
211 210 210 210 211 212 213 215 216 219 221 223 225 227 229 231 234 237 241 246 253 259 265 270 273 276 280 284 288 292 296 300 304 307 310 312 313 314 314 314 314 313 312 312 312 312 313 313 314 314 315 316 318 318 319 320 321 322 323 324 324 324 324 323 323 322 322 322 322
211 211 211 212 213 214 215 216 218 220 222 224 226 228 230 232 235 238 243 249 255 261 266 270 274 277 281 285 289 293 297 301 305 308 310 312 313 313 313 313 312 312 311 311 311 312 312 313 314 315 316 317 318 319 320 321 322 323 323 324 324 324 324 323 322 322 321 322 321
211 211 212 213 214 215 216 218 220 221 223 224 226 228 231 233 236 240 246 252 258 263 268 271 275 279 283 286 290 294 298 302 305 307 310 311 312 312 312 311 311 310 310 310 311 311 312 313 314 315 316 317 318 319 320 321 322 323 323 323 324 324 324 323 322 322 321 321 321
212 212 213 214 215 216 217 219 220 222 223 225 227 229 231 234 238 243 248 254 260 264 268 272 276 280 283 287 291 294 298 302 305 307 309 310 311 311 311 310 309 309 309 310 310 311 312 313 314 315 316 318 319 320 320 321 322 322 323 323 323 323 324 323 322 322 321 321 321
213 214 215 215 216 217 218 219 221 222 224 225 227 229 232 236 240 245 251 256 261 265 269 273 276 280 283 287 291 295 299 302 305 308 309 310 310 310 310 309 308 308 309 309 310 311 312 313 314 315 317 318 319 320 321 321 322 322 322 323 323 323 323 323 322 321 321 320 320
215 215 216 217 217 218 219 220 221 223 224 225 227 230 234 238 242 248 253 258 262 266 269 273 276 280 283 287 291 295 299 303 306 308 309 309 309 309 308 308 308 308 309 309 310 311 312 313 314 315 317 318 319 320 321 321 321 322 322 322 322 323 323 323 322 321 320 320 320
216 217 217 218 218 219 220 221 223 224 225 226 229 232 236 240 245 250 254 259 263 266 270 273 277 280 283 288 292 296 301 304 306 308 309 309 308 308 308 307 307 308 309 310 311 312 313 313 314 315 317 318 319 320 320 321 321 321 321 322 322 322 323 322 322 321 320 320 319
217 218 218 219 219 220 221 223 224 225 226 227 230 234 238 242 247 251 255 259 262 266 269 273 276 280 284 288 294 298 302 305 307 308 308 308 308 307 307 307 307 308 309 310 311 312 313 313 314 316 317 318 319 320 320 320 320 321 321 321 322 322 322 322 321 321 320 319 319
218 219 219 220 221 222 222 223 224 225 227 229 232 236 240 244 248 251 255 258 262 265 268 272 276 280 285 290 296 300 304 306 307 308 307 307 307 306 306 306 307 308 309 310 311 312 313 314 315 316 317 318 319 319 319 319 320 320 320 321 321 321 321 321 321 320 320 319 318
219 220 221 221 222 222 223 224 225 226 228 230 234 237 241 245 248 252 255 258 261 264 268 272 277 283 288 293 298 302 305 306 307 307 306 306 306 305 306 306 307 308 309 310 311 312 313 314 315 316 317 318 318 318 319 319 319 319 320 320 320 320 320 320 320 320 319 319 318
220 221 221 222 222 223 223 224 225 227 229 232 235 238 241 245 248 251 254 256 260 264 268 274 280 286 292 297 301 304 306 307 307 306 306 305 305 305 305 306 307 308 309 310 311 312 313 314 315 316 316 317 317 318 318 318 318 318 319 319 319 319 319 319 319 319 319 318 318
220 221 222 222 222 223 223 224 225 227 229 232 235 238 241 244 247 249 253 256 260 265 270 277 283 290 296 300 303 305 306 306 306 305 305 304 304 305 305 306 308 309 310 311 311 312 313 314 315 315 316 316 316 317 317 317 317 317 317 317 318 318 318 318 318 318 318 318 318
221 221 221 222 222 223 223 224 225 228 230 233 236 238 240 243 245 248 252 256 261 267 274 281 288 294 298 301 303 305 306 306 305 305 304 304 305 305 306 307 308 309 310 311 311 312 313 314 314 315 315 315 316 316 316 316 316 316 316 316 317 317 317 318 318 318 318 318 318
222 222 222 222 222 222 223 224 225 228 230 233 235 237 239 242 245 248 251 256 263 270 278 285 292 296 300 302 304 305 305 305 305 305 304 304 305 305 307 308 309 310 310 311 311 312 313 314 314 314 314 314 315 315 315 315 315 315 315 316 316 317 317 317 317 318 317 317 317
222 222 222 221 221 221 222 224 226 228 230 232 234 236 238 241 244 248 252 258 265 273 281 288 294 298 301 303 304 305 305 305 305 304 304 304 305 306 307 308 309 310 310 311 311 312 313 313 314 314 314 314 314 314 314 314 314 314 315 315 316 317 317 317 318 318 318 318 317
222 221 221 220 220 221 222 224 225 227 229 231 233 235 238 241 244 249 254 261 269 277 284 290 295 299 302 304 305 305 305 305 305 304 304 305 305 306 307 308 309 310 310 310 311 312 312 313 313 313 313 312 312 312 313 313 314 314 315 316 316 317 317 318 318 318 318 318 317
221 220 219 219 220 220 222 224 225 227 229 231 233 235 238 241 245 250 257 265 273 280 287 292 297 301 304 305 306 306 305 305 304 304 304 305 306 307 307 308 309 309 310 310 311 311 312 312 312 312 312 312 312 312 313 314 315 315 316 316 317 318 318 318 318 318 318 318 317
219 218 218 218 219 220 222 223 225 227 228 230 232 235 238 242 246 253 260 269 276 284 290 296 300 304 306 307 307 306 305 304 304 304 304 305 306 307 307 308 309 309 309 310 310 311 311 311 312 312 312 312 313 313 314 315 316 316 317 317 318 318 318 319 319 319 318 318 317
218 218 218 218 219 220 222 223 225 226 228 230 232 235 238 243 248 256 264 273 281 288 295 300 304 307 308 308 308 307 305 304 303 304 304 305 306 306 307 307 308 308 309 309 310 310 311 312 312 313 313 314 314 315 315 316 316 317 317 318 318 319 319 319 319 318 318 317 317
217 217 217 218 219 220 222 223 224 226 228 230 232 235 239 244 251 259 268 277 285 292 299 304 307 309 309 309 308 307 305 305 304 304 304 304 305 305 306 307 307 307 308 308 309 310 311 311 312 313 314 314 315 315 315 316 316 317 317 318 318 318 318 318 318 318 318 317 316
216 216 217 218 219 220 221 223 224 225 227 230 232 235 240 246 254 262 272 281 290 297 303 307 309 310 310 309 308 307 305 304 304 304 304 304 304 304 305 306 306 307 307 307 308 309 310 311 312 313 313 314 314 314 315 315 316 316 317 317 318 318 318 318 318 318 318 317 316
215 215 216 217 218 219 221 222 223 225 227 230 233 236 242 248 257 266 276 285 294 301 306 309 310 311 311 310 309 307 305 304 304 303 303 303 304 304 304 305 305 305 306 307 307 308 310 311 312 312 313 313 313 313 314 315 315 316 316 317 317 318 318 318 318 318 318 317 316
215 215 216 217 217 219 220 222 223 225 228 230 233 238 244 251 260 269 279 289 298 304 308 310 311 312 312 311 309 307 306 304 303 303 303 303 303 303 304 304 304 305 305 306 307 308 309 310 311 312 312 313 313 313 313 314 314 315 315 316 317 317 317 318 318 318 317 317 316
215 215 216 216 217 219 220 222 224 226 229 231 235 240 246 254 263 272 282 292 300 306 308 311 312 313 312 311 309 307 305 304 303 302 302 302 302 303 303 303 304 304 304 305 306 308 309 310 311 312 312 312 312 312 312 312 313 314 315 315 316 317 317 317 317 317 317 316 315
214 215 215 216 218 219 221 223 225 227 230 233 236 242 248 257 265 275 285 294 301 306 308 311 314 314 313 311 309 307 305 304 303 302 301 301 301 301 302 302 302 303 304 305 306 307 309 310 311 311 311 312 311 311 311 311 312 313 314 315 316 317 317 317 317 316 316 315 314
213 214 215 216 218 220 222 224 226 228 231 234 239 244 251 260 268 278 288 295 302 306 310 312 313 313 313 311 309 308 306 304 303 301 301 300 300 300 300 301 302 303 304 305 306 308 309 310 310 311 311 311 310 310 310 311 312 313 313 314 315 316 316 316 316 315 315 314 313
213 214 215 217 218 221 223 225 227 229 232 236 241 247 254 262 271 280 289 296 301 306 309 311 312 311 311 310 309 307 306 304 302 300 299 299 298 298 299 300 301 302 304 305 307 308 309 310 310 310 310 310 309 309 310 311 311 312 313 314 315 315 315 315 315 314 314 314 314
213 214 216 217 220 222 224 226 229 231 233 237 243 249 257 265 274 282 289 295 301 305 308 310 311 311 310 310 308 307 305 303 301 299 298 297 297 297 298 299 301 302 304 305 307 308 309 309 310 310 310 309 309 309 310 310 311 312 313 313 314 314 314 314 314 314 315 315 315
213 215 217 219 221 223 225 228 230 232 235 239 245 252 260 268 276 283 289 294 299 303 307 309 310 311 311 310 309 306 304 302 300 298 297 296 296 296 297 299 300 302 304 305 306 307 308 309 309 309 309 309 309 309 310 310 311 312 312 313 313 313 314 314 314 315 315 315 315
215 216 218 220 223 225 227 228 231 234 237 242 249 256 263 270 277 283 288 293 297 302 305 307 309 310 310 308 307 305 303 301 298 297 296 296 295 296 297 298 300 302 304 305 306 307 308 308 309 309 309 309 309 309 310 310 311 311 312 312 313 313 314 314 315 315 316 316 316
216 218 220 223 225 226 228 230 232 235 240 246 252 259 265 272 277 282 287 292 296 300 303 306 308 308 307 306 305 303 301 299 297 296 295 295 295 296 296 297 299 301 303 305 306 307 308 308 309 309 309 309 309 309 310 310 310 311 311 312 312 313 314 315 316 316 316 316 316
218 220 222 224 226 228 230 232 235 238 243 249 255 261 267 272 277 282 287 292 296 300 303 305 306 306 306 304 303 301 300 298 297 295 295 294 294 295 296 297 299 301 303 305 306 307 308 308 309 309 309 309 309 309 309 310 310 310 311 311 313 314 315 315 316 316 316 316 316
219 221 224 225 227 229 231 234 238 242 247 252 258 263 268 273 278 282 288 293 297 300 302 303 304 304 304 303 301 300 299 298 296 295 294 294 294 294 295 296 299 301 303 305 306 307 308 308 309 309 309 308 308 308 309 309 309 310 311 312 313 314 315 316 316 316 316 315 315
221 223 225 226 228 231 234 237 241 245 250 255 260 265 270 274 279 284 289 294 298 300 301 302 302 302 302 301 300 299 298 297 296 295 294 293 293 294 294 296 298 301 303 305 306 307 308 308 309 309 308 308 308 308 308 308 309 310 310 312 312 314 315 316 316 316 315 315 315
222 224 226 228 231 233 236 240 244 248 253 257 262 267 271 276 281 287 291 295 298 299 300 301 301 301 301 301 300 299 298 297 295 295 294 293 293 293 294 296 299 301 304 305 307 307 308 308 308 308 307 307 307 307 307 308 308 309 310 311 312 313 313 314 315 315 315 315 315